DateTimeUTC,F1_A11,F1_S11,BsB_S11,BsG_S11,BsR_S11,BbsB_S11,BbsG_S11,BbsR_S11,BaB_A11,BaG_A11,BaR_A11,T_S11,U_S11,P_S11,T1_A11
2020-08-24T00:00:00Z,00000380,21000600,,,,,,,,,,24.0,00.8,0674.5,30.9
2020-08-24T00:01:00Z,00000380,21000600,,,,,,,,,,24.0,00.8,0674.5,30.9
2020-08-24T00:02:00Z,00000380,21000600,,,,,,,,,,24.0,00.8,0674.5,30.9
2020-08-24T00:03:00Z,00000380,61000600,,,,,,,,,,24.0,00.8,0674.5,30.9
2020-08-24T00:04:00Z,00000380,41000600,-000.70,0000.26,0000.02,-000.24,0000.40,-000.15,0000.04,0000.08,-000.04,23.8,00.8,0675.4,30.8
2020-08-24T00:05:00Z,00000380,01000600,-000.52,-000.39,0000.37,-000.19,0000.46,0000.28,0000.10,-000.08,0000.17,23.7,00.8,0675.5,30.9
2020-08-24T00:06:00Z,00000380,01000600,0000.92,0000.13,0000.67,-000.61,0000.56,-000.38,0000.04,0000.15,-000.00,23.7,00.8,0675.5,30.9
2020-08-24T00:07:00Z,00000380,01000600,0000.30,-000.05,0000.62,-000.53,0000.16,-000.08,-000.12,0000.03,-000.04,23.7,00.8,0675.5,30.9
2020-08-24T00:08:00Z,00000380,01000600,-001.68,0000.10,0000.05,-000.61,0000.45,0000.06,0000.05,-000.02,-000.15,23.7,00.9,0675.4,30.9
2020-08-24T00:09:00Z,00000380,01000600,0000.63,0000.51,0000.54,0000.80,0000.50,-000.06,-000.00,-000.06,0000.11,23.7,00.8,0675.4,30.9
2020-08-24T00:10:00Z,00000380,01000600,-001.60,-000.36,0000.42,-000.28,0000.15,-000.02,0000.07,0000.05,0000.08,23.6,00.8,0675.4,30.9
2020-08-24T00:11:00Z,00000380,01000600,0000.17,0000.61,0000.20,0000.49,0000.45,0000.08,0000.07,0000.13,0000.10,23.6,00.9,0675.4,30.9
2020-08-24T00:12:00Z,00000380,01000600,-000.21,0000.10,-000.40,0000.35,0000.19,0000.23,-000.05,-000.26,-000.25,23.6,00.9,0675.4,30.9
2020-08-24T00:13:00Z,00000380,01000600,-000.19,0000.40,0000.23,-000.04,0000.17,0000.08,-000.06,0000.09,0000.09,23.6,00.8,0675.4,30.9
2020-08-24T00:14:00Z,00000380,01000600,-000.09,0000.34,-000.32,-000.62,0000.08,-000.06,-000.13,-000.09,-000.06,23.6,00.8,0675.4,30.9
2020-08-24T00:15:00Z,00000380,01000600,0000.01,0000.11,0000.02,0000.75,0000.22,-000.01,0000.16,0000.01,-000.01,23.6,00.7,0675.4,30.9
2020-08-24T00:16:00Z,00000380,01000600,-000.20,-000.03,-000.05,-000.04,0000.12,-000.22,-000.04,-000.03,-000.01,23.6,00.8,0675.4,30.9
2020-08-24T00:17:00Z,00000380,01000600,0000.04,-000.08,-000.31,0000.08,0000.44,0000.04,0000.08,0000.12,0000.06,23.6,00.8,0675.4,30.9
2020-08-24T00:18:00Z,00000380,01000600,0000.09,0000.08,0000.45,-000.07,0000.20,0000.56,-000.03,-000.11,-000.18,23.6,00.7,0675.4,30.9
2020-08-24T00:19:00Z,00000380,01000600,-000.00,0000.20,-000.04,-000.57,0000.28,0000.13,0000.01,0000.28,0000.15,23.6,00.7,0675.4,30.9
2020-08-24T00:20:00Z,00000380,01000600,0000.36,0000.24,0000.67,-001.05,0000.34,-000.36,-000.05,-000.19,-000.10,23.6,00.8,0675.4,30.9
2020-08-24T00:21:00Z,00000380,01000600,0000.50,0000.34,0000.00,-000.93,0000.51,-000.10,0000.01,-000.23,0000.07,23.6,00.7,0675.4,30.9
2020-08-24T00:22:00Z,00000380,01000600,-000.20,0000.06,0000.31,-000.21,0000.44,0000.06,0000.12,0000.26,0000.12,23.6,00.7,0675.4,30.9
2020-08-24T00:23:00Z,00000380,01000600,0000.30,0000.28,0000.07,0000.05,0000.09,-000.13,0000.08,0000.17,0000.03,23.6,00.7,0675.4,30.9
2020-08-24T00:24:00Z,00000380,01000600,-000.17,0000.01,0000.72,0000.12,0000.23,-000.02,-000.02,-000.11,0000.13,23.7,00.7,0675.4,30.9
2020-08-24T00:25:00Z,00000380,01000600,0000.25,0000.74,-000.25,0000.29,0000.66,-000.03,-000.17,-000.11,-000.16,23.7,00.7,0675.4,30.9
2020-08-24T00:26:00Z,00000380,01000600,-000.26,0000.29,0000.05,0000.25,0000.08,-000.01,0000.09,0000.02,0000.00,23.7,00.7,0675.4,30.9
2020-08-24T00:27:00Z,00000380,01000600,0000.33,-000.47,0000.16,0000.53,0000.17,0000.06,0000.11,0000.14,-000.05,23.7,00.6,0675.4,30.9
2020-08-24T00:28:00Z,00000380,01000600,-000.86,-000.08,0000.47,0000.38,0000.10,-000.18,-000.08,-000.06,-000.08,23.7,00.6,0675.4,30.9
2020-08-24T00:29:00Z,00000380,01000600,-000.90,-000.12,0000.15,-000.29,-000.09,0000.12,0000.20,0000.15,0000.15,23.7,00.7,0675.4,30.9
2020-08-24T00:30:00Z,00000380,01000600,0000.25,-000.42,0000.19,-000.01,0000.21,-000.01,-000.12,-000.13,-000.07,23.7,00.7,0675.4,30.9
2020-08-24T00:31:00Z,00000380,01000600,-000.48,-000.19,-000.02,-000.01,0000.17,-000.40,-000.03,-000.11,-000.01,23.6,00.6,0675.4,30.9
2020-08-24T00:32:00Z,00000380,01000600,-001.13,-000.04,-000.14,0000.36,-000.35,0000.08,0000.07,0000.15,0000.14,23.6,00.6,0675.4,30.9
2020-08-24T00:33:00Z,00000380,01000600,-000.33,0000.07,-000.18,0000.25,0000.08,-000.21,-000.03,-000.13,-000.05,23.6,00.6,0675.3,30.9
2020-08-24T00:34:00Z,00000380,01000600,-000.77,0000.26,0000.24,0000.22,0000.31,-000.03,0000.05,0000.08,-000.08,23.6,00.6,0675.3,30.9
2020-08-24T00:35:00Z,00000380,01000600,-000.56,-000.10,0000.10,0000.28,0000.20,-000.01,-000.03,-000.01,-000.01,23.6,00.7,0675.3,30.9
2020-08-24T00:36:00Z,00000380,01000600,-000.46,-000.11,0000.54,-000.10,0000.30,0000.11,-000.03,-000.02,-000.06,23.6,00.7,0675.3,30.9
2020-08-24T00:37:00Z,00000380,01000600,0000.69,-000.34,0000.30,0000.00,0000.68,0000.12,0000.16,0000.18,0000.27,23.6,00.7,0675.3,30.9
2020-08-24T00:38:00Z,00000380,01000600,0000.63,0000.21,0000.18,-000.28,0000.17,-000.37,0000.01,-000.13,-000.06,23.7,00.7,0675.3,30.9
2020-08-24T00:39:00Z,00000380,01000600,0000.31,0000.57,0000.48,0000.28,0000.33,0000.12,-000.01,-000.00,0000.06,23.7,00.7,0675.3,30.9
2020-08-24T00:40:00Z,00000380,01000600,0000.28,-000.10,0000.24,0000.26,0000.03,0000.03,0000.18,0000.13,0000.06,23.7,00.7,0675.3,30.9
2020-08-24T00:41:00Z,00000380,01000600,0000.54,-000.40,-000.00,-000.06,-000.09,-000.09,-000.05,0000.10,-000.01,23.7,00.7,0675.3,30.9
2020-08-24T00:42:00Z,00000380,01000600,-000.31,-000.30,0000.13,0000.26,0000.17,-000.29,-000.01,0000.01,0000.01,23.6,00.7,0675.2,30.9
2020-08-24T00:43:00Z,00000380,01000600,-001.11,-000.25,-000.00,0000.24,0000.29,0000.01,-000.04,0000.02,-000.14,23.6,00.7,0675.2,30.9
2020-08-24T00:44:00Z,00000380,01000600,-000.29,0000.31,0000.40,-000.48,-000.12,0000.15,0000.01,0000.01,-000.05,23.6,00.7,0675.2,30.9
2020-08-24T00:45:00Z,00000380,01000600,-000.06,0000.24,-000.39,0000.22,0000.42,0000.10,-000.02,-000.07,0000.09,23.6,00.6,0675.2,30.9
2020-08-24T00:46:00Z,00000380,01000600,0000.24,0000.31,0000.14,0000.44,-000.01,0000.07,0000.19,0000.07,0000.09,23.6,00.6,0675.2,30.9
2020-08-24T00:47:00Z,00000380,01000600,0000.52,-000.36,-000.09,-000.14,0000.59,-000.24,0000.58,0000.54,0000.41,23.6,00.8,0675.2,30.9
2020-08-24T00:48:00Z,00000380,01000600,0000.01,-000.11,-000.44,0000.26,0000.47,0000.09,-000.33,-000.38,-000.25,23.6,01.0,0675.2,30.9
2020-08-24T00:49:00Z,00000380,01000600,0000.15,0000.22,0000.67,0000.16,0000.29,0000.22,-000.05,0000.16,0000.04,23.6,00.9,0675.2,30.9
2020-08-24T00:50:00Z,00000380,01000600,-000.37,0000.43,-000.04,0000.08,0000.62,-000.02,-000.09,0000.02,-000.12,23.6,00.8,0675.2,30.9
2020-08-24T00:51:00Z,00000380,01000600,-000.22,-000.32,0000.08,0000.67,-000.02,0000.04,0000.11,-000.13,-000.08,23.6,00.8,0675.2,30.9
2020-08-24T00:52:00Z,00000380,01000600,-000.75,0000.22,0000.36,0000.94,0000.52,-000.03,-000.13,-000.02,0000.12,23.6,00.8,0675.2,30.9
2020-08-24T00:53:00Z,00000380,01000600,-000.67,0000.13,0000.38,0000.52,0000.36,-000.32,0000.12,0000.03,0000.05,23.6,00.9,0675.2,30.9
2020-08-24T00:54:00Z,00000380,01000600,0000.87,0000.43,0000.28,-000.60,0000.07,-000.41,-000.07,0000.08,-000.04,23.6,00.8,0675.2,30.9
2020-08-24T00:55:00Z,00000380,01000600,-000.42,-000.15,0000.20,-000.19,0000.15,-000.18,0000.11,-000.17,-000.01,23.5,00.8,0675.2,30.9
2020-08-24T00:56:00Z,00000380,01000600,-000.39,-000.07,0000.14,0000.04,0000.32,0000.45,0000.05,0000.15,0000.02,23.5,00.8,0675.1,30.9
2020-08-24T00:57:00Z,00000380,41000600,,,,,,,,,,23.6,00.6,0675.2,30.9
2020-08-24T00:58:00Z,00000380,61000600,,,,,,,,,,23.7,00.8,0674.2,30.9
2020-08-24T00:59:00Z,00000380,21000600,,,,,,,,,,23.8,00.8,0674.2,30.9
2020-08-24T01:00:00Z,00000380,21000600,,,,,,,,,,23.8,00.6,0674.1,30.9
2020-08-24T01:01:00Z,00000380,21000600,,,,,,,,,,23.8,00.6,0674.1,30.9
2020-08-24T01:02:00Z,00000380,21000600,,,,,,,,,,23.8,00.6,0674.1,30.9
2020-08-24T01:03:00Z,00000380,61000600,,,,,,,,,,23.8,00.6,0674.1,30.9
2020-08-24T01:04:00Z,00000380,41000600,0000.31,0000.27,0000.29,0000.93,-000.03,0000.13,0000.00,-000.14,0000.04,23.6,00.7,0675.0,30.9
2020-08-24T01:05:00Z,00000380,01000600,-000.75,0000.02,0000.62,0000.03,-000.14,0000.10,-000.11,-000.01,-000.01,23.5,00.7,0675.0,30.9
2020-08-24T01:06:00Z,00000380,01000600,-000.13,0000.70,0000.49,-000.30,0000.05,0000.15,-000.06,-000.19,-000.14,23.5,00.7,0675.1,30.9
2020-08-24T01:07:00Z,00000380,01000600,-000.38,0000.01,0000.01,-000.21,0000.05,0000.01,0000.13,0000.09,0000.14,23.5,00.7,0675.1,30.9
2020-08-24T01:08:00Z,00000380,01000600,-000.24,0000.34,0000.43,0000.22,0000.11,0000.11,-000.09,0000.17,-000.01,23.5,00.7,0675.1,30.9
2020-08-24T01:09:00Z,00000380,01000600,0000.23,-000.03,0000.01,-000.05,0000.42,0000.43,0000.37,0000.14,0000.15,23.6,00.8,0675.1,30.9
2020-08-24T01:10:00Z,00000380,01000600,0000.05,0000.48,0000.36,0000.34,-000.01,-000.33,-000.07,-000.03,0000.04,23.6,00.9,0675.1,30.9
2020-08-24T01:11:00Z,00000380,01000600,0000.58,0000.63,0000.20,0001.38,-000.15,-000.13,0000.10,0000.12,-000.02,23.6,00.8,0675.1,30.9
2020-08-24T01:12:00Z,00000380,01000600,-000.61,0000.39,0000.25,-000.20,0000.13,0000.20,-000.11,-000.09,-000.08,23.6,00.7,0675.1,30.9
2020-08-24T01:13:00Z,00000380,01000600,-000.31,-000.14,-000.08,0000.03,0000.24,-000.34,-000.15,0000.06,0000.03,23.6,00.6,0675.1,30.9
2020-08-24T01:14:00Z,00000380,01000600,-000.69,0000.45,0000.02,0000.22,0000.07,-000.08,0000.10,-000.10,-000.02,23.6,00.7,0675.1,30.9
2020-08-24T01:15:00Z,00000380,01000600,0000.07,0000.47,0000.34,0000.50,-000.28,0000.02,0000.04,0000.05,-000.05,23.6,00.7,0675.1,30.9
2020-08-24T01:16:00Z,00000380,01000600,-000.24,0000.11,0001.25,0000.46,0000.05,0000.50,-000.07,0000.08,0000.10,23.6,00.7,0675.0,30.9
2020-08-24T01:17:00Z,00000380,01000600,0000.07,0000.52,-000.08,-000.40,0000.27,-000.24,0000.06,-000.02,-000.10,23.5,00.7,0675.0,30.9
2020-08-24T01:18:00Z,00000380,01000600,-000.32,0000.33,-000.32,0000.49,-000.08,0000.16,0000.14,-000.04,0000.05,23.5,00.6,0675.0,30.9
2020-08-24T01:19:00Z,00000380,01000600,-000.12,0000.35,0000.80,-000.35,0000.10,0000.37,-000.17,-000.20,-000.04,23.5,00.7,0675.0,30.9
2020-08-24T01:20:00Z,00000380,01000600,-000.80,0000.16,0000.45,0000.64,0000.04,0000.01,-000.03,-000.02,0000.03,23.5,00.7,0675.0,30.9
2020-08-24T01:21:00Z,00000380,01000600,0000.42,0000.27,0001.01,-000.02,0000.17,0000.23,0000.10,0000.09,-000.09,23.5,00.7,0675.0,30.9
2020-08-24T01:22:00Z,00000380,01000600,0000.75,0000.20,0000.06,-000.14,0000.00,0000.13,0000.01,0000.09,0000.11,23.5,00.7,0675.0,30.9
2020-08-24T01:23:00Z,00000380,01000600,0000.62,0000.23,0000.25,0000.56,-000.03,-000.03,0000.13,0000.09,0000.03,23.6,00.7,0675.0,30.9
2020-08-24T01:24:00Z,00000380,01000600,0000.44,-000.10,-000.12,0000.32,-000.18,0000.16,-000.12,0000.01,-000.07,23.6,00.6,0675.0,30.9
2020-08-24T01:25:00Z,00000380,01000600,0000.12,-000.09,0000.96,0000.26,0000.13,-000.00,-000.06,-000.11,-000.05,23.6,00.6,0675.0,30.9
2020-08-24T01:26:00Z,00000380,01000600,0000.28,0000.33,0000.36,0000.76,0000.47,0000.03,0000.04,-000.02,0000.10,23.6,00.7,0675.0,30.9
2020-08-24T01:27:00Z,00000380,01000600,-000.09,0000.58,0000.60,-000.16,0000.44,0000.23,0000.19,0000.18,-000.09,23.6,00.6,0675.0,30.9
2020-08-24T01:28:00Z,00000380,01000600,-001.08,-000.12,-000.16,-000.59,0000.06,-000.09,-000.10,0000.04,0000.06,23.6,00.7,0675.0,30.9
2020-08-24T01:29:00Z,00000380,01000600,0000.93,-000.06,0000.18,-000.02,-000.34,0000.08,0000.05,-000.05,0000.01,23.5,00.7,0675.0,30.9
2020-08-24T01:30:00Z,00000380,01000600,-000.22,0000.38,-000.10,0000.28,-000.06,0000.20,-000.14,-000.13,-000.05,23.5,00.7,0674.9,30.9
2020-08-24T01:31:00Z,00000380,01000600,-001.08,0000.26,0000.00,-000.82,0000.13,-000.35,0000.11,0000.11,0000.09,23.5,00.7,0674.9,30.9
2020-08-24T01:32:00Z,00000380,01000600,-000.77,0000.21,0000.18,0000.37,-000.03,-000.03,-000.05,0000.09,0000.02,23.5,00.8,0674.9,30.9
2020-08-24T01:33:00Z,00000380,01000600,0000.36,0000.72,0000.53,0000.08,-000.25,0000.28,0000.08,0000.01,0000.04,23.5,00.8,0674.9,30.9
2020-08-24T01:34:00Z,00000380,01000600,0000.25,-000.24,0000.36,-000.05,-000.06,-000.12,0000.40,0000.26,0000.26,23.5,00.8,0674.9,30.9
2020-08-24T01:35:00Z,00000380,01000600,0000.55,-000.30,-000.34,0000.22,0000.01,-000.13,-000.26,-000.15,-000.23,23.5,00.9,0674.9,30.9
2020-08-24T01:36:00Z,00000380,01000600,0000.81,0000.40,0000.33,0000.26,0000.07,0000.12,0000.02,-000.01,-000.07,23.5,00.9,0674.9,30.9
2020-08-24T01:37:00Z,00000380,01000600,0000.37,0000.53,0000.08,0000.22,0000.04,0000.05,-000.12,-000.11,-000.05,23.5,00.8,0674.9,30.9
2020-08-24T01:38:00Z,00000380,01000600,0000.37,0000.41,-000.02,0000.43,-000.03,0000.27,0000.16,0000.09,0000.13,23.5,00.8,0674.9,30.9
2020-08-24T01:39:00Z,00000380,01000600,-000.44,0000.75,0000.29,0000.45,0000.20,0000.24,-000.10,-000.19,-000.02,23.5,00.8,0674.9,30.9
2020-08-24T01:40:00Z,00000380,01000600,0001.26,-000.23,0000.30,0000.20,0000.32,0000.08,0000.14,0000.18,0000.05,23.5,00.7,0674.9,30.9
2020-08-24T01:41:00Z,00000380,01000600,-000.67,0000.42,0000.21,-000.14,0000.34,-000.01,-000.06,0000.01,-000.09,23.5,00.7,0674.9,30.9
2020-08-24T01:42:00Z,00000380,01000600,0000.32,-000.20,0000.53,0000.02,0000.07,0000.30,0000.10,-000.07,0000.08,23.5,00.8,0674.9,30.9
2020-08-24T01:43:00Z,00000380,01000600,0000.01,0000.55,0000.18,0000.20,0000.08,0000.36,-000.19,0000.05,-000.03,23.5,00.8,0674.8,30.9
2020-08-24T01:44:00Z,00000380,01000600,-000.71,-000.34,0000.68,0000.74,-000.19,0000.07,-000.06,0000.09,0000.03,23.5,00.8,0674.8,30.9
2020-08-24T01:45:00Z,00000380,01000600,-000.17,0000.18,0000.29,0000.04,0000.21,0000.17,0000.19,-000.04,0000.05,23.5,00.8,0674.8,30.9
2020-08-24T01:46:00Z,00000380,01000600,0000.58,-000.34,0000.15,0000.56,0000.23,-000.29,0000.07,0000.05,-000.03,23.5,00.8,0674.8,30.9
2020-08-24T01:47:00Z,00000380,01000600,-000.35,0000.66,0000.32,-000.35,-000.18,-000.00,0000.01,-000.09,-000.03,23.5,00.8,0674.8,30.9
2020-08-24T01:48:00Z,00000380,01000600,0000.38,0000.08,-000.18,-000.37,-000.09,0000.07,-000.05,0000.03,0000.02,23.5,00.8,0674.8,30.9
2020-08-24T01:49:00Z,00000380,01000600,0000.39,0000.14,-000.12,-000.19,-000.08,0000.28,0000.00,0000.05,-000.12,23.5,00.8,0674.8,30.9
2020-08-24T01:50:00Z,00000380,01000600,-000.76,0000.40,0000.50,0000.15,0000.19,0000.14,0000.02,-000.09,0000.03,23.5,00.8,0674.8,30.9
2020-08-24T01:51:00Z,00000380,01000600,0000.02,0000.32,0000.04,0000.82,-000.12,-000.26,-000.08,-000.14,0000.03,23.4,00.9,0674.8,30.9
2020-08-24T01:52:00Z,00000380,01000600,0000.81,0000.52,0000.16,-000.20,-000.03,-000.20,0000.04,0000.07,0000.01,23.5,00.8,0674.8,30.9
2020-08-24T01:53:00Z,00000380,01000600,0000.00,-000.29,0000.11,-000.43,0000.07,0000.27,0000.06,0000.18,0000.24,23.5,00.8,0674.8,30.9
2020-08-24T01:54:00Z,00000380,01000600,0000.96,0000.43,0000.48,0000.39,0000.22,-000.05,0000.03,-000.00,-000.12,23.5,00.8,0674.8,30.9
2020-08-24T01:55:00Z,00000380,01000600,0000.49,-000.18,0000.48,-000.60,-000.01,0000.10,0000.13,-000.02,0000.10,23.5,00.8,0674.8,30.9
2020-08-24T01:56:00Z,00000380,01010600,0000.41,-000.32,-000.02,-000.07,0000.18,0000.08,0000.05,0000.09,-000.04,23.5,00.9,0674.8,30.9
2020-08-24T01:57:00Z,00000380,40000600,,,,,,,,,,23.5,01.3,0674.6,30.9
2020-08-24T01:58:00Z,00000380,61000600,,,,,,,,,,23.6,00.7,0673.8,30.9
2020-08-24T01:59:00Z,00000380,21000600,,,,,,,,,,23.7,00.6,0673.8,30.9
2020-08-24T02:00:00Z,00000380,21000600,,,,,,,,,,23.7,00.6,0673.8,30.9
2020-08-24T02:01:00Z,00000380,21000600,,,,,,,,,,23.7,00.6,0673.8,30.9
2020-08-24T02:02:00Z,00000380,21000600,,,,,,,,,,23.7,00.6,0673.8,30.9
2020-08-24T02:03:00Z,00000380,61000600,,,,,,,,,,23.7,00.6,0673.8,30.9
2020-08-24T02:04:00Z,00000380,41000600,0000.31,-000.11,0000.60,0000.05,-000.03,0000.33,-000.16,0000.08,-000.21,23.5,00.6,0674.7,30.9
2020-08-24T02:05:00Z,00000380,01000600,-001.45,0000.54,0001.18,-000.26,-000.02,0000.23,0000.26,0000.02,0000.29,23.5,00.7,0674.8,30.9
2020-08-24T02:06:00Z,00000380,01000600,-001.41,0000.14,0000.64,-000.49,-000.10,0000.24,-000.11,-000.07,-000.01,23.5,00.7,0674.8,30.9
2020-08-24T02:07:00Z,00000380,01000600,-000.58,0000.00,0000.63,-000.22,0000.19,0000.17,-000.03,-000.06,-000.13,23.5,00.6,0674.8,30.9
2020-08-24T02:08:00Z,00000380,01000600,-000.73,-000.67,0000.33,0000.33,-000.03,-000.06,0000.09,0000.17,0000.02,23.5,00.7,0674.8,30.9
2020-08-24T02:09:00Z,00000380,01000600,-000.07,-000.17,-000.05,-000.30,0000.40,0000.21,-000.11,-000.23,0000.08,23.5,00.6,0674.8,30.9
2020-08-24T02:10:00Z,00000380,01000600,-000.02,0000.11,-000.03,0000.26,-000.29,-000.05,0000.14,0000.24,-000.03,23.5,00.6,0674.8,30.9
2020-08-24T02:11:00Z,00000380,01000600,-001.16,0000.42,0000.35,-000.32,-000.19,0000.36,0000.09,-000.07,-000.01,23.5,00.6,0674.8,30.9
2020-08-24T02:12:00Z,00000380,01000600,0000.97,0000.18,0000.17,0000.07,0000.02,0000.48,-000.08,0000.08,-000.05,23.5,00.6,0674.8,30.9
2020-08-24T02:13:00Z,00000380,01000600,0000.12,0000.35,0000.18,0000.18,-000.26,0000.11,0000.03,-000.04,0000.07,23.5,00.7,0674.8,30.9
2020-08-24T02:14:00Z,00000380,01000600,0000.17,-000.32,0000.32,-000.34,-000.19,0000.03,-000.01,-000.08,-000.05,23.5,00.6,0674.8,30.9
2020-08-24T02:15:00Z,00000380,01000600,-000.51,0000.35,0000.45,0000.65,0000.05,0000.09,0000.01,0000.12,0000.03,23.5,00.6,0674.7,30.9
2020-08-24T02:16:00Z,00000380,01000600,-000.36,-000.21,0000.71,0000.06,0000.12,-000.13,0000.09,-000.06,-000.01,23.5,00.6,0674.8,30.9
2020-08-24T02:17:00Z,00000380,01000600,0000.35,0000.30,0000.27,-000.22,-000.05,-000.26,-000.05,0000.02,0000.06,23.5,00.6,0674.7,30.9
2020-08-24T02:18:00Z,00000380,01000600,-000.09,0000.33,-000.01,-000.08,0000.28,-000.21,0000.16,0000.03,0000.00,23.5,00.6,0674.7,30.9
2020-08-24T02:19:00Z,00000380,01000600,-000.09,0000.42,0000.55,0000.46,0000.13,0000.24,-000.14,0000.08,0000.04,23.5,00.6,0674.7,30.9
2020-08-24T02:20:00Z,00000380,01000600,0001.11,0000.76,0000.71,-000.55,-000.00,-000.18,-000.23,-000.19,-000.15,23.4,00.6,0674.7,30.9
2020-08-24T02:21:00Z,00000380,01000600,-000.78,-000.05,0000.38,-000.03,0000.04,0000.04,0000.17,0000.13,0000.10,23.4,00.6,0674.7,30.9
2020-08-24T02:22:00Z,00000380,01000600,0000.02,0000.14,0001.12,0001.09,-000.02,-000.09,-000.00,-000.05,0000.02,23.5,00.6,0674.7,30.9
2020-08-24T02:23:00Z,00000380,01000600,0000.20,0000.15,0000.47,-000.27,-000.02,0000.34,0000.17,-000.01,-000.04,23.5,00.6,0674.7,30.9
2020-08-24T02:24:00Z,00000380,01000600,-000.46,-000.19,0000.08,-000.10,-000.05,0000.17,-000.08,0000.09,0000.11,23.5,00.6,0674.7,30.9
2020-08-24T02:25:00Z,00000380,01000600,-000.05,-000.45,0000.09,-000.34,0000.21,0000.43,0000.22,0000.10,-000.03,23.5,00.6,0674.7,30.9
2020-08-24T02:26:00Z,00000380,01000600,-001.56,-000.03,0000.00,0000.37,-000.14,-000.02,-000.15,-000.06,-000.04,23.5,00.6,0674.7,30.9
2020-08-24T02:27:00Z,00000380,01000600,-000.32,-000.13,0000.04,-000.03,0000.15,-000.39,-000.08,-000.07,0000.01,23.5,00.7,0674.7,30.9
2020-08-24T02:28:00Z,00000380,01000600,0000.15,0000.18,0000.12,-000.56,-000.14,-000.04,0000.23,0000.22,0000.06,23.5,00.6,0674.7,30.9
2020-08-24T02:29:00Z,00000380,01000600,-000.62,0000.10,0000.60,0000.41,-000.03,0000.07,-000.16,-000.09,-000.02,23.5,00.7,0674.6,30.9
2020-08-24T02:30:00Z,00000380,01000600,-000.09,0000.12,0000.49,-000.23,-000.05,-000.19,0000.28,0000.06,0000.03,23.4,00.7,0674.6,30.9
2020-08-24T02:31:00Z,00000380,01000600,-001.23,0000.36,0001.00,0000.52,-000.05,0000.18,-000.17,-000.03,0000.04,23.4,00.7,0674.6,30.9
2020-08-24T02:32:00Z,00000380,01000600,-000.63,-000.18,0000.35,-000.24,-000.19,0000.01,0000.07,0000.14,-000.01,23.4,00.7,0674.6,30.9
2020-08-24T02:33:00Z,00000380,01000600,-000.91,0000.14,0000.24,-000.46,-000.03,-000.15,-000.01,-000.10,0000.00,23.4,00.7,0674.6,30.9
2020-08-24T02:34:00Z,00000380,01000600,-000.50,0000.27,0000.77,0000.27,-000.04,0000.11,0000.11,0000.04,0000.02,23.4,00.7,0674.6,30.9
2020-08-24T02:35:00Z,00000380,01000600,0000.65,-000.49,0000.30,-000.13,-000.12,-000.00,-000.10,-000.08,-000.06,23.4,00.6,0674.6,30.9
2020-08-24T02:36:00Z,00000380,01000600,-000.07,0000.12,0000.63,0000.00,0000.07,0000.53,0000.68,0000.53,0000.47,23.4,01.1,0674.6,30.9
2020-08-24T02:37:00Z,00000380,01000600,-001.01,-000.37,0000.34,-000.27,0000.10,0000.21,-000.26,-000.08,-000.26,23.4,01.1,0674.6,30.9
2020-08-24T02:38:00Z,00000380,01000600,-000.62,0000.03,0000.74,0000.34,-000.32,0000.28,-000.12,-000.06,-000.07,23.5,00.9,0674.6,30.9
2020-08-24T02:39:00Z,00000380,01000600,0000.61,0000.27,0000.43,-000.27,-000.02,0000.26,-000.05,-000.11,0000.02,23.4,00.8,0674.6,30.9
2020-08-24T02:40:00Z,00000380,01000600,-000.72,-000.36,0000.69,0000.30,-000.35,0000.26,-000.13,0000.05,-000.08,23.4,00.8,0674.6,30.9
2020-08-24T02:41:00Z,00000380,01000600,-000.12,0000.06,0000.48,-000.26,0000.25,0000.38,0000.20,-000.03,0000.04,23.4,00.7,0674.6,30.9
2020-08-24T02:42:00Z,00000380,01000600,-000.95,0000.39,0000.88,-000.05,-000.04,-000.15,0000.04,-000.06,-000.01,23.4,00.7,0674.5,30.9
2020-08-24T02:43:00Z,00000380,01000600,0000.74,-000.03,0000.64,0000.39,0000.36,0000.48,-000.04,0000.15,0000.13,23.4,00.7,0674.5,30.9
2020-08-24T02:44:00Z,00000380,01000600,-000.93,0000.06,0000.30,-000.58,0000.11,0000.01,0000.05,-000.03,0000.05,23.4,00.8,0674.5,30.9
2020-08-24T02:45:00Z,00000380,01000600,0000.31,0000.10,0000.27,0000.66,-000.23,0000.13,-000.09,-000.00,-000.14,23.4,00.8,0674.5,30.9
2020-08-24T02:46:00Z,00000380,01000600,-000.52,-000.11,0000.87,-000.71,0000.00,0000.30,-000.08,-000.07,-000.03,23.4,00.8,0674.5,30.9
2020-08-24T02:47:00Z,00000380,01000600,-000.38,0000.08,0000.33,0000.37,0000.07,-000.09,0000.82,0000.69,0000.62,23.4,00.9,0674.5,30.9
2020-08-24T02:48:00Z,00000380,01000600,0000.48,0000.31,0000.46,0000.34,0000.21,-000.25,-000.45,-000.26,-000.35,23.4,01.1,0674.4,30.9
2020-08-24T02:49:00Z,00000380,01000600,-000.69,0000.53,0000.34,-000.51,0000.06,-000.34,0000.02,-000.05,0000.06,23.4,00.9,0674.4,30.9
2020-08-24T02:50:00Z,00000380,01000600,-000.03,0000.12,-000.12,-000.18,0000.15,-000.18,-000.01,-000.13,-000.09,23.4,00.9,0674.4,30.9
2020-08-24T02:51:00Z,00000380,01000600,0000.07,-000.46,0000.12,0000.31,-000.10,-000.19,-000.08,-000.06,-000.10,23.4,00.9,0674.4,30.9
2020-08-24T02:52:00Z,00000380,01000600,-001.65,0000.22,0000.20,0000.29,-000.06,0000.18,-000.04,0000.06,0000.02,23.4,00.9,0674.4,30.9
2020-08-24T02:53:00Z,00000380,01000600,-001.34,0000.01,-000.01,-000.10,-000.03,-000.07,0000.04,-000.10,0000.06,23.4,00.8,0674.4,30.9
2020-08-24T02:54:00Z,00000380,01000600,-000.37,-000.48,0000.52,-000.08,0000.50,0000.22,-000.11,-000.10,-000.13,23.4,00.8,0674.4,30.9
2020-08-24T02:55:00Z,00000380,01000600,0000.30,-000.29,-000.23,-000.01,0000.19,-000.15,0000.14,0000.10,0000.03,23.5,00.8,0674.4,30.9
2020-08-24T02:56:00Z,00000380,01000600,-000.10,0000.17,0000.17,-000.23,0000.09,0000.22,0000.06,0000.24,-000.00,23.4,00.8,0674.4,30.9
2020-08-24T02:57:00Z,00000380,41000600,,,,,,,,,,23.5,01.0,0674.4,30.9
2020-08-24T02:58:00Z,00000380,61000600,,,,,,,,,,23.6,00.8,0673.4,30.9
2020-08-24T02:59:00Z,00000380,21000600,,,,,,,,,,23.7,00.6,0673.4,30.9
2020-08-24T03:00:00Z,00000380,21000600,,,,,,,,,,23.7,00.6,0673.4,30.9
2020-08-24T03:01:00Z,00000380,21000600,,,,,,,,,,23.7,00.6,0673.4,30.9
2020-08-24T03:02:00Z,00000380,21000600,,,,,,,,,,23.7,00.8,0673.4,30.9
2020-08-24T03:03:00Z,00000380,61000600,,,,,,,,,,23.7,00.8,0673.4,30.9
2020-08-24T03:04:00Z,00000380,41000600,-000.20,-000.14,0000.76,0000.76,-000.11,0000.49,-000.22,-000.07,-000.07,23.5,00.9,0674.2,30.9
2020-08-24T03:05:00Z,00000380,01000600,0000.99,-000.31,0000.04,0000.45,0000.18,0000.62,0000.93,0000.83,0000.69,23.5,01.0,0674.3,30.9
2020-08-24T03:06:00Z,00000380,00000600,-000.15,-000.31,0000.01,0000.67,0000.10,0000.33,-000.03,-000.16,-000.07,23.4,01.4,0674.3,30.9
2020-08-24T03:07:00Z,00000380,01000600,0001.13,0000.43,0000.47,-000.45,-000.03,0000.46,-000.17,-000.17,-000.19,23.4,01.4,0674.3,30.9
2020-08-24T03:08:00Z,00000380,01000600,0000.79,0000.06,-000.01,-000.18,-000.33,0000.23,-000.27,-000.15,-000.09,23.5,01.1,0674.3,30.9
2020-08-24T03:09:00Z,00000380,01000600,0000.63,0000.32,-000.28,0000.35,0000.16,-000.12,-000.17,-000.14,-000.14,23.5,01.0,0674.3,30.9
2020-08-24T03:10:00Z,00000380,01000600,-000.15,-000.05,-000.09,-000.07,0000.21,0000.47,0000.06,0000.11,0000.01,23.5,00.9,0674.3,30.9